Time,TemperatureF,DewpointF,PressureIn,WindDirection,WindDirectionDegrees,WindSpeedMPH,WindSpeedGustMPH,Humidity,HourlyPrecipIn,Conditions,Clouds,dailyrainin,SoftwareType,DateUTC
2013-05-18 00:05:00,72.3,65.4,30.00,NNE,24,0.0,10.0,79,0.00,,,0.00,Wunderground v.1.15,2013-05-18 04:05:00,
2013-05-18 00:15:00,72.1,65.6,30.00,NNE,31,0.0,0.0,80,0.00,,,0.00,Wunderground v.1.15,2013-05-18 04:15:00,
2013-05-18 00:25:00,72.0,65.8,30.00,NNE,31,0.0,0.0,81,0.00,,,0.00,Wunderground v.1.15,2013-05-18 04:25:00,
2013-05-18 00:30:00,72.0,65.8,30.00,NNE,31,0.0,0.0,81,0.00,,,0.00,Wunderground v.1.15,2013-05-18 04:30:00,
2013-05-18 00:35:00,72.0,65.8,30.00,NNE,31,0.0,0.0,81,0.00,,,0.00,Wunderground v.1.15,2013-05-18 04:35:00,
2013-05-18 00:45:00,72.0,65.8,30.00,East,81,0.0,0.0,81,0.00,,,0.00,Wunderground v.1.15,2013-05-18 04:45:00,
2013-05-18 00:50:00,72.1,65.9,30.00,East,81,0.0,0.0,81,0.00,,,0.00,Wunderground v.1.15,2013-05-18 04:50:00,
2013-05-18 00:55:00,72.1,65.9,30.00,East,81,0.0,0.0,81,0.00,,,0.00,Wunderground v.1.15,2013-05-18 04:55:00,
2013-05-18 01:00:00,72.1,65.9,29.99,East,81,0.0,0.0,81,0.00,,,0.00,Wunderground v.1.15,2013-05-18 05:00:00,
2013-05-18 01:10:00,72.1,66.3,29.99,East,81,0.0,0.0,82,0.00,,,0.00,Wunderground v.1.15,2013-05-18 05:10:00,
2013-05-18 01:20:00,72.3,66.8,29.99,East,98,0.0,0.0,83,0.00,,,0.00,Wunderground v.1.15,2013-05-18 05:20:00,
2013-05-18 01:30:00,72.8,67.3,29.99,ESE,102,0.0,0.0,83,0.00,,,0.00,Wunderground v.1.15,2013-05-18 05:30:00,
2013-05-18 01:40:00,73.2,67.7,29.99,ESE,117,0.0,0.0,83,0.00,,,0.00,Wunderground v.1.15,2013-05-18 05:40:00,
2013-05-18 01:50:00,73.3,67.8,29.98,ESE,103,2.0,2.0,83,0.00,,,0.00,Wunderground v.1.15,2013-05-18 05:50:00,
2013-05-18 02:00:00,73.3,67.8,29.98,ESE,105,0.0,0.0,83,0.00,,,0.00,Wunderground v.1.15,2013-05-18 06:00:00,
2013-05-18 02:10:00,73.3,67.8,29.98,ESE,106,2.0,6.0,83,0.00,,,0.00,Wunderground v.1.15,2013-05-18 06:10:00,
2013-05-18 02:20:00,73.3,67.8,29.98,ESE,102,4.0,4.0,83,0.00,,,0.00,Wunderground v.1.15,2013-05-18 06:20:00,
2013-05-18 02:30:00,73.2,67.7,29.97,ESE,110,2.0,2.0,83,0.00,,,0.00,Wunderground v.1.15,2013-05-18 06:30:00,
2013-05-18 02:40:00,73.0,67.9,29.97,East,98,2.0,2.0,84,0.00,,,0.00,Wunderground v.1.15,2013-05-18 06:40:00,
2013-05-18 02:50:00,72.8,67.7,29.97,East,101,2.0,2.0,84,0.00,,,0.00,Wunderground v.1.15,2013-05-18 06:50:00,
2013-05-18 02:55:00,72.8,67.7,29.97,ESE,105,1.0,2.0,84,0.00,,,0.00,Wunderground v.1.15,2013-05-18 06:55:00,
2013-05-18 03:05:00,72.7,67.9,29.97,East,86,2.0,2.0,85,0.00,,,0.00,Wunderground v.1.15,2013-05-18 07:05:00,
2013-05-18 03:15:00,72.3,67.5,29.97,ESE,112,2.0,2.0,85,0.00,,,0.00,Wunderground v.1.15,2013-05-18 07:15:00,
2013-05-18 03:25:00,72.1,67.7,29.97,ESE,102,2.0,2.0,86,0.00,,,0.00,Wunderground v.1.15,2013-05-18 07:25:00,
2013-05-18 03:35:00,72.0,67.6,29.97,East,98,1.0,5.0,86,0.00,,,0.00,Wunderground v.1.15,2013-05-18 07:35:00,
2013-05-18 03:45:00,72.0,67.6,29.97,ESE,120,2.0,2.0,86,0.00,,,0.00,Wunderground v.1.15,2013-05-18 07:45:00,
2013-05-18 03:55:00,71.8,67.7,29.97,ESE,120,2.0,2.0,87,0.00,,,0.00,Wunderground v.1.15,2013-05-18 07:55:00,
2013-05-18 04:05:00,71.6,67.5,29.96,ESE,120,0.0,10.0,87,0.00,,,0.00,Wunderground v.1.15,2013-05-18 08:05:00,
2013-05-18 04:15:00,71.6,67.9,29.97,SE,126,1.0,10.0,88,0.00,,,0.00,Wunderground v.1.15,2013-05-18 08:15:00,
2013-05-18 04:25:00,71.5,67.8,29.97,SE,129,3.0,6.0,88,0.00,,,0.00,Wunderground v.1.15,2013-05-18 08:25:00,
2013-05-18 04:35:00,71.3,67.6,29.97,SE,131,1.0,10.0,88,0.00,,,0.00,Wunderground v.1.15,2013-05-18 08:35:00,
2013-05-18 04:45:00,71.1,67.4,29.97,SE,139,3.0,9.0,88,0.00,,,0.00,Wunderground v.1.15,2013-05-18 08:45:00,
2013-05-18 04:55:00,70.9,67.5,29.97,ESE,104,3.0,10.0,89,0.00,,,0.00,Wunderground v.1.15,2013-05-18 08:55:00,
2013-05-18 05:05:00,70.9,67.5,29.97,ESE,122,4.0,10.0,89,0.00,,,0.00,Wunderground v.1.15,2013-05-18 09:05:00,
2013-05-18 05:10:00,70.8,67.7,29.97,ESE,122,3.0,3.0,90,0.00,,,0.00,Wunderground v.1.15,2013-05-18 09:10:00,
2013-05-18 05:20:00,70.8,67.7,29.97,ESE,117,1.0,1.0,90,0.00,,,0.00,Wunderground v.1.15,2013-05-18 09:20:00,
2013-05-18 05:30:00,70.9,68.1,29.97,ESE,109,2.0,2.0,91,0.00,,,0.00,Wunderground v.1.15,2013-05-18 09:30:00,
2013-05-18 05:40:00,70.9,68.1,29.97,ESE,108,2.0,2.0,91,0.00,,,0.00,Wunderground v.1.15,2013-05-18 09:40:00,
2013-05-18 05:50:00,70.9,68.5,29.97,ESE,108,4.0,4.0,92,0.00,,,0.00,Wunderground v.1.15,2013-05-18 09:50:00,
2013-05-18 06:00:00,70.6,68.2,29.97,East,94,3.0,3.0,92,0.00,,,0.00,Wunderground v.1.15,2013-05-18 10:00:00,
2013-05-18 06:10:00,70.4,68.0,29.97,ESE,121,1.0,1.0,92,0.00,,,0.00,Wunderground v.1.15,2013-05-18 10:10:00,
2013-05-18 06:20:00,70.4,68.3,29.98,ESE,120,3.0,12.0,93,0.00,,,0.00,Wunderground v.1.15,2013-05-18 10:20:00,
2013-05-18 06:25:00,70.3,68.2,29.98,ESE,117,4.0,12.0,93,0.00,,,0.00,Wunderground v.1.15,2013-05-18 10:25:00,
2013-05-18 06:35:00,70.3,68.2,29.98,ESE,113,2.0,3.0,93,0.00,,,0.00,Wunderground v.1.15,2013-05-18 10:35:00,
2013-05-18 06:40:00,70.1,68.0,29.98,SE,144,1.0,1.0,93,0.00,,,0.00,Wunderground v.1.15,2013-05-18 10:40:00,
2013-05-18 06:50:00,70.1,68.3,29.99,SE,124,1.0,1.0,94,0.00,,,0.00,Wunderground v.1.15,2013-05-18 10:50:00,
2013-05-18 07:00:00,70.1,68.3,29.99,SE,139,1.0,1.0,94,0.00,,,0.00,Wunderground v.1.15,2013-05-18 11:00:00,
2013-05-18 07:05:00,70.3,68.5,29.99,ESE,107,1.0,12.0,94,0.00,,,0.00,Wunderground v.1.15,2013-05-18 11:05:00,
2013-05-18 07:15:00,70.3,68.5,29.99,ESE,116,1.0,12.0,94,0.00,,,0.00,Wunderground v.1.15,2013-05-18 11:15:00,
2013-05-18 07:25:00,70.4,68.6,29.99,ESE,120,0.0,12.0,94,0.00,,,0.00,Wunderground v.1.15,2013-05-18 11:25:00,
2013-05-18 07:30:00,70.6,68.8,30.00,ESE,120,0.0,12.0,94,0.00,,,0.00,Wunderground v.1.15,2013-05-18 11:30:00,
2013-05-18 07:40:00,70.9,69.1,30.00,ESE,111,0.0,12.0,94,0.00,,,0.00,Wunderground v.1.15,2013-05-18 11:40:00,
2013-05-18 07:50:00,71.3,69.5,30.00,SE,126,2.0,12.0,94,0.00,,,0.00,Wunderground v.1.15,2013-05-18 11:50:00,
2013-05-18 07:55:00,71.6,69.5,30.00,ESE,110,3.0,12.0,93,0.00,,,0.00,Wunderground v.1.15,2013-05-18 11:55:00,
2013-05-18 08:05:00,72.1,69.6,30.00,SE,137,4.0,12.0,92,0.00,,,0.00,Wunderground v.1.15,2013-05-18 12:05:00,
2013-05-18 08:10:00,72.3,69.8,30.00,ESE,108,4.0,4.0,92,0.00,,,0.00,Wunderground v.1.15,2013-05-18 12:10:00,
2013-05-18 08:20:00,73.0,70.2,30.00,ESE,110,1.0,1.0,91,0.00,,,0.00,Wunderground v.1.15,2013-05-18 12:20:00,
2013-05-18 08:30:00,73.5,70.1,30.00,ESE,107,2.0,12.0,89,0.00,,,0.00,Wunderground v.1.15,2013-05-18 12:30:00,
2013-05-18 08:35:00,73.7,70.3,30.00,ESE,103,2.0,12.0,89,0.00,,,0.00,Wunderground v.1.15,2013-05-18 12:35:00,
2013-05-18 08:45:00,74.2,70.4,30.01,SE,125,3.0,12.0,88,0.00,,,0.00,Wunderground v.1.15,2013-05-18 12:45:00,
2013-05-18 08:55:00,74.9,70.8,30.01,SE,125,3.0,12.0,87,0.00,,,0.00,Wunderground v.1.15,2013-05-18 12:55:00,
2013-05-18 09:00:00,75.4,70.9,30.01,SSE,149,2.0,2.0,86,0.00,,,0.00,Wunderground v.1.15,2013-05-18 13:00:00,
2013-05-18 09:10:00,75.8,71.0,30.01,SSE,155,2.0,2.0,85,0.00,,,0.00,Wunderground v.1.15,2013-05-18 13:10:00,
2013-05-18 09:15:00,76.3,71.1,30.02,SSE,151,1.0,11.0,84,0.00,,,0.00,Wunderground v.1.15,2013-05-18 13:15:00,
2013-05-18 09:25:00,76.7,70.4,30.02,ESE,123,2.0,3.0,81,0.00,,,0.00,Wunderground v.1.15,2013-05-18 13:25:00,
2013-05-18 09:35:00,77.2,70.5,30.02,SE,141,1.0,1.0,80,0.00,,,0.00,Wunderground v.1.15,2013-05-18 13:35:00,
2013-05-18 09:40:00,77.9,70.9,30.02,ESE,119,0.0,0.0,79,0.00,,,0.00,Wunderground v.1.15,2013-05-18 13:40:00,
2013-05-18 09:50:00,78.6,71.2,30.02,South,172,0.0,0.0,78,0.00,,,0.00,Wunderground v.1.15,2013-05-18 13:50:00,
2013-05-18 09:55:00,78.6,70.4,30.02,SW,230,0.0,0.0,76,0.00,,,0.00,Wunderground v.1.15,2013-05-18 13:55:00,
2013-05-18 10:05:00,80.1,70.7,30.02,SSE,150,0.0,12.0,73,0.00,,,0.00,Wunderground v.1.15,2013-05-18 14:05:00,
2013-05-18 10:10:00,79.9,70.5,30.02,SSW,208,0.0,12.0,73,0.00,,,0.00,Wunderground v.1.15,2013-05-18 14:10:00,
2013-05-18 10:20:00,80.1,70.3,30.02,SSE,163,0.0,12.0,72,0.00,,,0.00,Wunderground v.1.15,2013-05-18 14:20:00,
2013-05-18 10:25:00,80.1,69.8,30.02,SSE,155,0.0,12.0,71,0.00,,,0.00,Wunderground v.1.15,2013-05-18 14:25:00,
2013-05-18 10:30:00,80.9,70.6,30.02,SE,144,0.0,12.0,71,0.00,,,0.00,Wunderground v.1.15,2013-05-18 14:30:00,
2013-05-18 10:40:00,80.9,70.2,30.02,SSW,203,1.0,1.0,70,0.00,,,0.00,Wunderground v.1.15,2013-05-18 14:40:00,
2013-05-18 10:45:00,81.2,70.9,30.03,NW,304,0.0,12.0,71,0.00,,,0.00,Wunderground v.1.15,2013-05-18 14:45:00,
2013-05-18 10:55:00,81.4,71.1,30.03,WNW,293,3.0,12.0,71,0.00,,,0.00,Wunderground v.1.15,2013-05-18 14:55:00,
2013-05-18 11:05:00,80.9,71.4,30.02,NW,325,4.0,12.0,73,0.00,,,0.00,Wunderground v.1.15,2013-05-18 15:05:00,
2013-05-18 11:10:00,81.1,72.4,30.02,WNW,300,6.0,6.0,75,0.00,,,0.00,Wunderground v.1.15,2013-05-18 15:10:00,
2013-05-18 11:15:00,81.1,72.4,30.02,West,265,9.0,9.0,75,0.00,,,0.00,Wunderground v.1.15,2013-05-18 15:15:00,
2013-05-18 11:25:00,80.9,72.6,30.02,NNW,327,7.0,12.0,76,0.00,,,0.00,Wunderground v.1.15,2013-05-18 15:25:00,
2013-05-18 11:30:00,81.1,72.0,30.02,WNW,284,7.0,12.0,74,0.00,,,0.00,Wunderground v.1.15,2013-05-18 15:30:00,
2013-05-18 11:40:00,81.2,71.7,30.02,North,350,7.0,7.0,73,0.00,,,0.00,Wunderground v.1.15,2013-05-18 15:40:00,
2013-05-18 11:45:00,81.6,71.7,30.01,West,266,5.0,12.0,72,0.00,,,0.00,Wunderground v.1.15,2013-05-18 15:45:00,
2013-05-18 11:55:00,82.2,72.7,30.01,West,271,1.0,12.0,73,0.00,,,0.00,Wunderground v.1.15,2013-05-18 15:55:00,
2013-05-18 12:00:00,82.4,72.5,30.01,SW,214,2.0,2.0,72,0.00,,,0.00,Wunderground v.1.15,2013-05-18 16:00:00,
2013-05-18 12:10:00,82.6,71.8,30.01,WNW,288,11.0,20.0,70,0.00,,,0.00,Wunderground v.1.15,2013-05-18 16:10:00,
2013-05-18 12:20:00,82.0,72.1,30.01,WSW,250,9.0,9.0,72,0.00,,,0.00,Wunderground v.1.15,2013-05-18 16:20:00,
2013-05-18 12:25:00,81.8,72.3,30.01,West,263,6.0,9.0,73,0.00,,,0.00,Wunderground v.1.15,2013-05-18 16:25:00,
2013-05-18 12:35:00,82.4,72.0,30.01,WNW,293,14.0,16.0,71,0.00,,,0.00,Wunderground v.1.15,2013-05-18 16:35:00,
2013-05-18 12:40:00,82.2,71.0,30.01,NW,318,15.0,17.0,69,0.00,,,0.00,Wunderground v.1.15,2013-05-18 16:40:00,
2013-05-18 12:50:00,82.4,70.8,30.00,NW,307,16.0,20.0,68,0.00,,,0.00,Wunderground v.1.15,2013-05-18 16:50:00,
2013-05-18 12:55:00,82.6,70.1,30.00,NW,306,15.0,20.0,66,0.00,,,0.00,Wunderground v.1.15,2013-05-18 16:55:00,
2013-05-18 13:05:00,82.8,69.8,30.00,NNW,335,16.0,20.0,65,0.00,,,0.00,Wunderground v.1.15,2013-05-18 17:05:00,
2013-05-18 13:10:00,83.0,69.6,30.00,NW,312,16.0,16.0,64,0.00,,,0.00,Wunderground v.1.15,2013-05-18 17:10:00,
2013-05-18 13:20:00,83.4,69.9,30.00,West,281,17.0,17.0,64,0.00,,,0.00,Wunderground v.1.15,2013-05-18 17:20:00,
2013-05-18 13:25:00,83.6,70.6,30.00,WNW,294,16.0,18.0,65,0.00,,,0.00,Wunderground v.1.15,2013-05-18 17:25:00,
2013-05-18 13:35:00,84.0,70.5,29.99,West,276,16.0,21.0,64,0.00,,,0.00,Wunderground v.1.15,2013-05-18 17:35:00,
2013-05-18 13:45:00,83.8,68.9,29.99,West,270,16.0,17.0,61,0.00,,,0.00,Wunderground v.1.15,2013-05-18 17:45:00,
2013-05-18 13:50:00,84.1,69.2,29.99,NW,314,14.0,17.0,61,0.00,,,0.00,Wunderground v.1.15,2013-05-18 17:50:00,
2013-05-18 13:55:00,84.1,68.7,29.99,West,266,14.0,17.0,60,0.00,,,0.00,Wunderground v.1.15,2013-05-18 17:55:00,
2013-05-18 14:05:00,84.1,70.6,29.99,West,274,15.0,26.0,64,0.00,,,0.00,Wunderground v.1.15,2013-05-18 18:05:00,
2013-05-18 14:10:00,84.0,70.5,29.99,West,276,16.0,16.0,64,0.00,,,0.00,Wunderground v.1.15,2013-05-18 18:10:00,
2013-05-18 14:20:00,84.0,71.0,29.98,WNW,283,17.0,20.0,65,0.00,,,0.00,Wunderground v.1.15,2013-05-18 18:20:00,
2013-05-18 14:25:00,84.1,70.1,29.98,West,278,17.0,20.0,63,0.00,,,0.00,Wunderground v.1.15,2013-05-18 18:25:00,
2013-05-18 14:35:00,84.1,70.1,29.98,West,281,17.0,24.0,63,0.00,,,0.00,Wunderground v.1.15,2013-05-18 18:35:00,
2013-05-18 14:40:00,84.1,68.7,29.98,West,276,18.0,19.0,60,0.00,,,0.00,Wunderground v.1.15,2013-05-18 18:40:00,
2013-05-18 14:50:00,83.6,68.7,29.98,West,273,19.0,19.0,61,0.00,,,0.00,Wunderground v.1.15,2013-05-18 18:50:00,
2013-05-18 14:55:00,84.0,67.1,29.98,WNW,290,17.0,19.0,57,0.00,,,0.00,Wunderground v.1.15,2013-05-18 18:55:00,
2013-05-18 15:05:00,84.3,68.4,29.98,WNW,300,17.0,22.0,59,0.00,,,0.00,Wunderground v.1.15,2013-05-18 19:05:00,
2013-05-18 15:15:00,84.3,66.9,29.97,West,272,17.0,20.0,56,0.00,,,0.00,Wunderground v.1.15,2013-05-18 19:15:00,
2013-05-18 15:20:00,84.1,66.7,29.97,WNW,285,19.0,28.0,56,0.00,,,0.00,Wunderground v.1.15,2013-05-18 19:20:00,
2013-05-18 15:30:00,83.6,65.2,29.97,West,279,22.0,22.0,54,0.00,,,0.00,Wunderground v.1.15,2013-05-18 19:30:00,
2013-05-18 15:35:00,83.6,65.2,29.97,WNW,282,21.0,22.0,54,0.00,,,0.00,Wunderground v.1.15,2013-05-18 19:35:00,
2013-05-18 15:45:00,83.6,65.2,29.97,West,280,21.0,24.0,54,0.00,,,0.00,Wunderground v.1.15,2013-05-18 19:45:00,
2013-05-18 15:50:00,83.6,67.8,29.97,WNW,290,20.0,22.0,59,0.00,,,0.00,Wunderground v.1.15,2013-05-18 19:50:00,
2013-05-18 16:00:00,83.2,68.3,29.96,WNW,289,20.0,26.0,61,0.00,,,0.00,Wunderground v.1.15,2013-05-18 20:00:00,
2013-05-18 16:05:00,83.2,67.9,29.96,West,259,19.0,29.0,60,0.00,,,0.00,Wunderground v.1.15,2013-05-18 20:05:00,
2013-05-18 16:15:00,83.8,66.4,29.95,WNW,285,17.0,19.0,56,0.00,,,0.00,Wunderground v.1.15,2013-05-18 20:15:00,
2013-05-18 16:20:00,83.8,67.9,29.95,WSW,257,18.0,29.0,59,0.00,,,0.00,Wunderground v.1.15,2013-05-18 20:20:00,
2013-05-18 16:30:00,83.6,67.3,29.95,WSW,250,18.0,18.0,58,0.00,,,0.00,Wunderground v.1.15,2013-05-18 20:30:00,
2013-05-18 16:35:00,83.8,68.4,29.95,West,262,18.0,22.0,60,0.00,,,0.00,Wunderground v.1.15,2013-05-18 20:35:00,
2013-05-18 16:45:00,83.6,67.3,29.94,WSW,246,18.0,19.0,58,0.00,,,0.00,Wunderground v.1.15,2013-05-18 20:45:00,
2013-05-18 16:55:00,83.6,67.3,29.94,West,281,18.0,29.0,58,0.00,,,0.00,Wunderground v.1.15,2013-05-18 20:55:00,
2013-05-18 17:00:00,83.4,66.1,29.94,West,273,18.0,18.0,56,0.00,,,0.00,Wunderground v.1.15,2013-05-18 21:00:00,
2013-05-18 17:05:00,83.4,67.1,29.94,West,278,18.0,23.0,58,0.00,,,0.00,Wunderground v.1.15,2013-05-18 21:05:00,
2013-05-18 17:15:00,83.4,65.5,29.94,West,271,16.0,29.0,55,0.00,,,0.00,Wunderground v.1.15,2013-05-18 21:15:00,
2013-05-18 17:25:00,83.4,66.6,29.94,West,267,17.0,29.0,57,0.00,,,0.00,Wunderground v.1.15,2013-05-18 21:25:00,
2013-05-18 17:30:00,83.2,65.9,29.94,West,271,17.0,29.0,56,0.00,,,0.00,Wunderground v.1.15,2013-05-18 21:30:00,
2013-05-18 17:40:00,83.4,63.9,29.94,WNW,284,17.0,29.0,52,0.00,,,0.00,Wunderground v.1.15,2013-05-18 21:40:00,
2013-05-18 17:45:00,83.0,61.9,29.94,WNW,296,18.0,29.0,49,0.00,,,0.00,Wunderground v.1.15,2013-05-18 21:45:00,
2013-05-18 17:55:00,83.0,63.0,29.94,WNW,290,16.0,29.0,51,0.00,,,0.00,Wunderground v.1.15,2013-05-18 21:55:00,
2013-05-18 18:00:00,82.8,63.4,29.94,West,271,17.0,17.0,52,0.00,,,0.00,Wunderground v.1.15,2013-05-18 22:00:00,
2013-05-18 18:10:00,82.6,62.6,29.94,WNW,283,16.0,17.0,51,0.00,,,0.00,Wunderground v.1.15,2013-05-18 22:10:00,
2013-05-18 18:20:00,82.2,62.8,29.94,West,264,17.0,17.0,52,0.00,,,0.00,Wunderground v.1.15,2013-05-18 22:20:00,
2013-05-18 18:25:00,82.2,65.4,29.94,West,270,17.0,17.0,57,0.00,,,0.00,Wunderground v.1.15,2013-05-18 22:25:00,
2013-05-18 18:30:00,82.0,65.8,29.94,WSW,240,15.0,15.0,58,0.00,,,0.00,Wunderground v.1.15,2013-05-18 22:30:00,
2013-05-18 18:40:00,81.6,63.9,29.94,West,281,17.0,21.0,55,0.00,,,0.00,Wunderground v.1.15,2013-05-18 22:40:00,
2013-05-18 18:50:00,81.4,65.7,29.94,West,281,15.0,15.0,59,0.00,,,0.00,Wunderground v.1.15,2013-05-18 22:50:00,
2013-05-18 18:55:00,81.6,65.9,29.94,West,271,14.0,18.0,59,0.00,,,0.00,Wunderground v.1.15,2013-05-18 22:55:00,
2013-05-18 19:00:00,81.2,66.9,29.94,WNW,295,13.0,17.0,62,0.00,,,0.00,Wunderground v.1.15,2013-05-18 23:00:00,
2013-05-18 19:10:00,80.3,65.6,29.94,WNW,299,20.0,20.0,61,0.00,,,0.00,Wunderground v.1.15,2013-05-18 23:10:00,
2013-05-18 19:20:00,80.3,64.7,29.94,WNW,290,14.0,28.0,59,0.00,,,0.00,Wunderground v.1.15,2013-05-18 23:20:00,
2013-05-18 19:25:00,79.9,64.3,29.94,NW,318,15.0,28.0,59,0.00,,,0.00,Wunderground v.1.15,2013-05-18 23:25:00,
2013-05-18 19:35:00,79.8,65.6,29.94,WNW,302,15.0,28.0,62,0.00,,,0.00,Wunderground v.1.15,2013-05-18 23:35:00,
2013-05-18 19:40:00,79.4,65.2,29.94,West,266,15.0,15.0,62,0.00,,,0.00,Wunderground v.1.15,2013-05-18 23:40:00,
2013-05-18 19:50:00,79.0,66.2,29.95,WNW,301,13.0,28.0,65,0.00,,,0.00,Wunderground v.1.15,2013-05-18 23:50:00,
2013-05-18 19:55:00,79.0,66.7,29.95,West,267,10.0,28.0,66,0.00,,,0.00,Wunderground v.1.15,2013-05-18 23:55:00,
2013-05-18 20:05:00,78.5,66.6,29.95,West,280,6.0,28.0,67,0.00,,,0.00,Wunderground v.1.15,2013-05-19 00:05:00,
2013-05-18 20:10:00,78.3,66.4,29.95,WNW,302,4.0,4.0,67,0.00,,,0.00,Wunderground v.1.15,2013-05-19 00:10:00,
2013-05-18 20:20:00,77.9,66.9,29.95,WNW,301,2.0,2.0,69,0.00,,,0.00,Wunderground v.1.15,2013-05-19 00:20:00,
2013-05-18 20:30:00,77.6,67.0,29.95,WNW,286,1.0,1.0,70,0.00,,,0.00,Wunderground v.1.15,2013-05-19 00:30:00,
2013-05-18 20:35:00,77.4,66.8,29.95,WNW,290,1.0,28.0,70,0.00,,,0.00,Wunderground v.1.15,2013-05-19 00:35:00,
2013-05-18 20:40:00,77.2,67.1,29.95,WNW,285,1.0,28.0,71,0.00,,,0.00,Wunderground v.1.15,2013-05-19 00:40:00,
2013-05-18 20:50:00,77.0,67.3,29.95,WNW,291,2.0,2.0,72,0.00,,,0.00,Wunderground v.1.15,2013-05-19 00:50:00,
2013-05-18 21:00:00,77.0,67.7,29.95,WNW,294,4.0,4.0,73,0.00,,,0.00,Wunderground v.1.15,2013-05-19 01:00:00,
2013-05-18 21:05:00,77.0,67.7,29.95,WNW,283,4.0,28.0,73,0.00,,,0.00,Wunderground v.1.15,2013-05-19 01:05:00,
2013-05-18 21:15:00,77.0,68.5,29.95,WNW,292,3.0,3.0,75,0.00,,,0.00,Wunderground v.1.15,2013-05-19 01:15:00,
2013-05-18 21:20:00,76.8,68.3,29.95,WNW,303,4.0,5.0,75,0.00,,,0.00,Wunderground v.1.15,2013-05-19 01:20:00,
2013-05-18 21:30:00,77.0,68.9,29.96,NW,304,5.0,13.0,76,0.00,,,0.00,Wunderground v.1.15,2013-05-19 01:30:00,
2013-05-18 21:35:00,77.0,68.5,29.96,NW,320,6.0,13.0,75,0.00,,,0.00,Wunderground v.1.15,2013-05-19 01:35:00,
2013-05-18 21:40:00,77.0,68.1,29.96,NW,321,8.0,8.0,74,0.00,,,0.00,Wunderground v.1.15,2013-05-19 01:40:00,
2013-05-18 21:50:00,77.0,68.1,29.96,NW,314,12.0,12.0,74,0.00,,,0.00,Wunderground v.1.15,2013-05-19 01:50:00,
2013-05-18 22:00:00,77.0,68.9,29.96,NW,318,10.0,12.0,76,0.00,,,0.00,Wunderground v.1.15,2013-05-19 02:00:00,
2013-05-18 22:05:00,76.8,68.7,29.96,NW,320,10.0,13.0,76,0.00,,,0.00,Wunderground v.1.15,2013-05-19 02:05:00,
2013-05-18 22:15:00,76.8,68.7,29.97,NNW,344,6.0,11.0,76,0.00,,,0.00,Wunderground v.1.15,2013-05-19 02:15:00,
2013-05-18 22:20:00,76.8,68.7,29.97,NW,326,4.0,4.0,76,0.00,,,0.00,Wunderground v.1.15,2013-05-19 02:20:00,
2013-05-18 22:30:00,76.7,68.6,29.97,NNW,336,1.0,1.0,76,0.00,,,0.00,Wunderground v.1.15,2013-05-19 02:30:00,
2013-05-18 22:40:00,76.5,68.4,29.97,North,356,0.0,13.0,76,0.00,,,0.00,Wunderground v.1.15,2013-05-19 02:40:00,
2013-05-18 22:50:00,76.1,67.6,29.97,North,355,0.0,13.0,75,0.00,,,0.00,Wunderground v.1.15,2013-05-19 02:50:00,
2013-05-18 22:55:00,76.1,67.6,29.97,North,357,0.0,13.0,75,0.00,,,0.00,Wunderground v.1.15,2013-05-19 02:55:00,
2013-05-18 23:05:00,76.0,67.1,29.97,North,0,0.0,13.0,74,0.00,,,0.00,Wunderground v.1.15,2013-05-19 03:05:00,
2013-05-18 23:10:00,76.0,67.5,29.97,North,1,0.0,13.0,75,0.00,,,0.00,Wunderground v.1.15,2013-05-19 03:10:00,
2013-05-18 23:20:00,75.6,67.1,29.98,NNE,17,0.0,13.0,75,0.00,,,0.00,Wunderground v.1.15,2013-05-19 03:20:00,
2013-05-18 23:30:00,75.3,66.8,29.99,NNE,17,0.0,13.0,75,0.00,,,0.00,Wunderground v.1.15,2013-05-19 03:30:00,
2013-05-18 23:35:00,75.3,66.8,29.99,NNE,18,0.0,13.0,75,0.00,,,0.00,Wunderground v.1.15,2013-05-19 03:35:00,
2013-05-18 23:45:00,74.7,66.6,29.98,NNE,17,0.0,13.0,76,0.00,,,0.00,Wunderground v.1.15,2013-05-19 03:45:00,
2013-05-18 23:50:00,74.4,66.3,29.98,NNE,17,0.0,13.0,76,0.00,,,0.00,Wunderground v.1.15,2013-05-19 03:50:00,